CFG2253 EDDF-MDPC

Flight info

Callsign CFG2253
Flight time N/A
Altitude 32000
Route ULKIG4L/18 ULKIG Y180 DIK UN857 TOLVU DCT RAPOR/N0466F330 DCT GIMER DCT ESTOC UT300 ELCOB/N0465F340 UT300 SENLO UN502 JSY DCT LIZAD DCT GAPLI/M082F340 DCT DINIM/M082F350 DCT 51N020W 50N030W 4830N04000W 47N050W DCT PORTI/M082F360 DCT SELIM/M082F380 DCT 29N070W/N0474F380 DCT MNDEZ DCT ELMUC DCT KATOK KATOK2B
Aircraft A339/H-SADE1E2E3GHIJ3J5M1P2RWXY/LB2D1

Departure

Time 2026-05-07 16:26
Airport Frankfurt Main Airport (EDDF)

Arrival

Time N/A
Airport Punta Cana International Airport (MDPC)
Time Latitude Longitude Altitude Speed Heading
2026-05-07 15:47 50.04595 8.57055 363 ft 0 kts 60°
2026-05-07 16:09 50.04585 8.57032 363 ft 2 kts 104°
2026-05-07 16:09 50.04587 8.57008 357 ft 0 kts 330°
2026-05-07 16:09 50.04603 8.56911 357 ft 0 kts 194°
2026-05-07 16:11 50.04577 8.56902 359 ft 8 kts 193°
2026-05-07 16:11 50.04498 8.56872 354 ft 14 kts 198°
2026-05-07 16:12 50.04438 8.56770 361 ft 12 kts 245°
2026-05-07 16:12 50.04411 8.56663 365 ft 10 kts 249°
2026-05-07 16:12 50.04387 8.56564 365 ft 10 kts 249°
2026-05-07 16:12 50.04363 8.56463 362 ft 10 kts 249°
2026-05-07 16:13 50.04346 8.56394 362 ft 0 kts 249°
2026-05-07 16:13 50.04334 8.56343 358 ft 9 kts 249°
2026-05-07 16:14 50.04310 8.56243 360 ft 10 kts 249°
2026-05-07 16:14 50.04284 8.56137 359 ft 10 kts 249°
2026-05-07 16:14 50.04264 8.56045 361 ft 7 kts 252°
2026-05-07 16:14 50.04249 8.55971 362 ft 7 kts 251°
2026-05-07 16:15 50.04218 8.55848 361 ft 20 kts 248°
2026-05-07 16:15 50.04169 8.55649 365 ft 18 kts 249°
2026-05-07 16:15 50.04129 8.55479 362 ft 16 kts 250°
2026-05-07 16:15 50.04094 8.55328 367 ft 13 kts 250°
2026-05-07 16:16 50.04068 8.55214 368 ft 11 kts 250°
2026-05-07 16:16 50.04041 8.55095 368 ft 14 kts 250°
2026-05-07 16:16 50.04000 8.54923 370 ft 19 kts 249°
2026-05-07 16:16 50.03942 8.54698 365 ft 25 kts 248°
2026-05-07 16:17 50.03889 8.54466 368 ft 16 kts 252°
2026-05-07 16:17 50.03842 8.54317 367 ft 14 kts 239°
2026-05-07 16:17 50.03797 8.54185 374 ft 17 kts 244°
2026-05-07 16:17 50.03737 8.53964 372 ft 26 kts 249°
2026-05-07 16:18 50.03674 8.53704 368 ft 24 kts 250°
2026-05-07 16:18 50.03620 8.53478 371 ft 21 kts 249°
2026-05-07 16:18 50.03572 8.53278 372 ft 19 kts 249°
2026-05-07 16:18 50.03531 8.53106 374 ft 16 kts 249°
2026-05-07 16:19 50.03495 8.52960 377 ft 11 kts 249°
2026-05-07 16:19 50.03485 8.52915 378 ft 0 kts 249°
2026-05-07 16:19 50.03477 8.52883 380 ft 9 kts 249°
2026-05-07 16:20 50.03470 8.52854 380 ft 0 kts 249°
2026-05-07 16:20 50.03468 8.52847 380 ft 3 kts 249°
2026-05-07 16:20 50.03452 8.52784 384 ft 9 kts 246°
2026-05-07 16:21 50.03445 8.52760 384 ft 0 kts 246°
2026-05-07 16:21 50.03445 8.52759 384 ft 1 kts 246°
2026-05-07 16:21 50.03427 8.52697 385 ft 12 kts 246°
2026-05-07 16:22 50.03347 8.52599 382 ft 13 kts 185°
2026-05-07 16:22 50.03333 8.52598 381 ft 0 kts 183°
2026-05-07 16:24 50.03332 8.52598 381 ft 1 kts 183°
2026-05-07 16:24 50.03169 8.52599 376 ft 54 kts 180°
2026-05-07 16:25 50.02579 8.52602 376 ft 112 kts 179°
2026-05-07 16:25 50.01636 8.52595 365 ft 158 kts 181°
2026-05-07 16:25 50.00448 8.52535 592 ft 174 kts 185°
2026-05-07 16:25 49.99201 8.52489 956 ft 187 kts 181°
2026-05-07 16:26 49.97809 8.52582 1156 ft 206 kts 176°
2026-05-07 16:26 49.96354 8.52812 1434 ft 220 kts 172°
2026-05-07 16:26 49.94854 8.53087 2104 ft 211 kts 174°
2026-05-07 16:26 49.93871 8.53192 2384 ft 219 kts 176°
2026-05-07 16:27 49.91727 8.53297 2760 ft 236 kts 179°
2026-05-07 16:27 49.90077 8.53363 3320 ft 237 kts 179°
2026-05-07 16:27 49.88431 8.53446 3956 ft 236 kts 179°
2026-05-07 16:27 49.86787 8.53234 4453 ft 239 kts 194°
2026-05-07 16:28 49.85173 8.52459 4735 ft 255 kts 202°
2026-05-07 16:28 49.83471 8.51428 4995 ft 268 kts 203°
2026-05-07 16:28 49.81724 8.50370 5477 ft 271 kts 202°
2026-05-07 16:28 49.79952 8.49330 6020 ft 272 kts 202°
2026-05-07 16:29 49.78171 8.48310 6542 ft 274 kts 202°
2026-05-07 16:29 49.76371 8.47294 7046 ft 275 kts 201°
2026-05-07 16:29 49.74582 8.46317 7528 ft 277 kts 200°
2026-05-07 16:29 49.72867 8.44948 7939 ft 277 kts 221°
2026-05-07 16:30 49.71655 8.42678 8424 ft 274 kts 244°
2026-05-07 16:30 49.71130 8.39891 8890 ft 274 kts 264°